This is the latest recevied weather packets stored in our database for station/object N4AN. If no packets are shown the sender has not sent any weather packets the latest 10 day(s).
| Time | Temp. | Humidity | Pressure | Rain* | Wind** | Luminosity | Snow |
|---|---|---|---|---|---|---|---|
| 1777489731 | 28.89° C | 68% | 1009.4 hPa | 0 mm | - | - | - |
| 1777489428 | 28.33° C | 69% | 1009.3 hPa | 0 mm | - | - | - |
| 1777489125 | 28.33° C | 72% | 1009.4 hPa | 0 mm | - | - | - |
| 1777488825 | 27.22° C | 73% | 1009.5 hPa | 0 mm | - | - | - |
| 1777488522 | 27.22° C | 74% | 1009.5 hPa | 0 mm | - | - | - |
| 1777488220 | 26.67° C | 73% | 1009.6 hPa | 0 mm | - | - | - |
| 1777487919 | 27.22° C | 72% | 1009.7 hPa | 0 mm | - | - | - |
| 1777487615 | 27.78° C | 73% | 1009.8 hPa | 0 mm | - | - | - |
| 1777487313 | 27.22° C | 73% | 1009.9 hPa | 0 mm | - | - | - |
| 1777487020 | 26.67° C | 73% | 1009.9 hPa | 0 mm | - | - | - |
| 1777486713 | 26.67° C | 74% | 1010 hPa | 0 mm | - | - | - |
| 1777486407 | 26.67° C | 73% | 1010.1 hPa | 0 mm | - | - | - |
| 1777486107 | 26.67° C | 72% | 1010 hPa | 0 mm | - | - | - |
| 1777485807 | 27.78° C | 71% | 1010.2 hPa | 0 mm | - | - | - |
| 1777485506 | 27.78° C | 72% | 1010.4 hPa | 0 mm | - | - | - |
| 1777485205 | 27.78° C | 71% | 1010.4 hPa | 0 mm | - | - | - |
| 1777484905 | 28.33° C | 69% | 1010.4 hPa | 0 mm | - | - | - |
| 1777484605 | 28.89° C | 69% | 1010.5 hPa | 0 mm | - | - | - |
| 1777484304 | 28.89° C | 68% | 1010.7 hPa | 0 mm | - | - | - |
| 1777484004 | 28.89° C | 67% | 1010.8 hPa | 0 mm | - | - | - |
| 1777483702 | 29.44° C | 67% | 1010.8 hPa | 0 mm | - | - | - |
| 1777483402 | 30° C | 66% | 1011 hPa | 0 mm | - | - | - |
| 1777483101 | 30.56° C | 66% | 1011.1 hPa | 0 mm | - | - | - |
| 1777482801 | 30° C | 67% | 1011.2 hPa | 0 mm | - | - | - |
| 1777482501 | 30° C | 66% | 1011.3 hPa | 0 mm | - | - | - |
* Rain latest hour (hover to see other rain measurements)
** Current wind speed in m/s (hover to see current wind gust speed)